TimeAST,TemperatureF,Dew PointF,Humidity,Sea Level PressureIn,VisibilityMPH,Wind Direction,Wind SpeedMPH,Gust SpeedMPH,PrecipitationIn,Events,Conditions,WindDirDegrees,DateUTC
12:00 AM,75.2,73.4,94,29.92,4.3,East,5.8,-,N/A,Rain-Thunderstorm,Light Thunderstorms and Rain,100,2012-11-15 04:00:00
1:00 AM,77.0,75.2,94,29.92,4.3,ESE,4.6,-,N/A,Rain-Thunderstorm,Light Thunderstorms and Rain,110,2012-11-15 05:00:00
2:00 AM,77.0,75.2,94,29.92,4.3,Calm,Calm,-,N/A,Rain-Thunderstorm,Light Thunderstorms and Rain,0,2012-11-15 06:00:00
3:00 AM,75.2,75.2,100,29.92,3.7,ENE,11.5,-,N/A,Rain-Thunderstorm,Thunderstorms and Rain,70,2012-11-15 07:00:00
3:08 AM,73.4,73.4,100,29.89,0.6,NNE,11.5,23.0,N/A,Rain-Thunderstorm,Heavy Thunderstorms and Rain,30,2012-11-15 07:08:00
4:00 AM,73.4,73.4,100,29.92,1.9,ENE,13.8,-,N/A,Rain-Thunderstorm,Heavy Thunderstorms and Rain,70,2012-11-15 08:00:00
5:00 AM,73.4,73.4,100,29.89,3.7,ESE,6.9,-,N/A,Rain-Thunderstorm,Thunderstorms and Rain,110,2012-11-15 09:00:00
6:00 AM,75.2,75.2,100,29.86,5.0,Calm,Calm,-,N/A,Rain-Thunderstorm,Light Thunderstorms and Rain,0,2012-11-15 10:00:00
7:00 AM,73.4,73.4,100,29.89,6.2,Calm,Calm,-,N/A,,Mostly Cloudy,0,2012-11-15 11:00:00
8:00 AM,74,74,98,29.92,10,NNE,6.7,,,,Partly Cloudy,30,2012-11-15 12:00:00
8:00 AM,73.4,73.4,100,29.92,6.2,NNE,6.9,-,N/A,,Mostly Cloudy,30,2012-11-15 12:00:00
9:00 AM,77.0,77.0,100,29.92,6.2,Variable,3.5,-,N/A,,Mostly Cloudy,0,2012-11-15 13:00:00
10:00 AM,78.8,77.0,94,29.98,5.0,ENE,13.8,-,N/A,Rain,Rain,60,2012-11-15 14:00:00
11:00 AM,80.6,77.0,89,29.95,6.2,ENE,6.9,-,N/A,,Overcast,60,2012-11-15 15:00:00
12:00 PM,84.2,77.0,79,29.95,6.2,ESE,6.9,-,N/A,Thunderstorm,Light Thunderstorm,120,2012-11-15 16:00:00
1:00 PM,86.0,77.0,74,29.92,6.2,SSE,8.1,-,N/A,Thunderstorm,Thunderstorm,160,2012-11-15 17:00:00
2:00 PM,86,78,71,29.90,10,SE,6.7,,,,Partly Cloudy,130,2012-11-15 18:00:00
2:00 PM,86.0,78.8,79,29.89,6.2,SE,6.9,-,N/A,Thunderstorm,Light Thunderstorm,130,2012-11-15 18:00:00
3:00 PM,84.2,77.0,79,29.86,6.2,SE,8.1,-,N/A,,Scattered Clouds,130,2012-11-15 19:00:00
4:00 PM,84.2,75.2,74,29.86,6.2,ESE,9.2,-,N/A,Thunderstorm,Light Thunderstorm,110,2012-11-15 20:00:00
5:00 PM,83,75,71,29.88,10,ENE,8.9,,,,Partly Cloudy,70,2012-11-15 21:00:00
5:00 PM,84.2,75.2,74,29.86,6.2,ENE,9.2,-,N/A,Thunderstorm,Light Thunderstorm,70,2012-11-15 21:00:00
6:00 PM,80.6,75.2,84,29.89,6.2,ENE,5.8,-,N/A,Thunderstorm,Light Thunderstorm,60,2012-11-15 22:00:00
7:00 PM,80.6,75.2,84,29.89,6.2,ENE,11.5,-,N/A,Thunderstorm,Light Thunderstorm,70,2012-11-15 23:00:00
8:00 PM,80,74,77,29.90,10,ENE,6.7,,,,Partly Cloudy,70,2012-11-16 00:00:00
8:00 PM,78.8,73.4,83,29.89,6.2,ENE,6.9,-,N/A,,Partly Cloudy,70,2012-11-16 00:00:00
9:00 PM,78.8,73.4,83,29.92,6.2,East,5.8,-,N/A,,Partly Cloudy,90,2012-11-16 01:00:00
10:00 PM,80.6,75.2,84,29.92,6.2,East,5.8,-,N/A,,Partly Cloudy,80,2012-11-16 02:00:00
11:00 PM,80.6,73.4,79,29.92,6.2,East,5.8,-,N/A,,Partly Cloudy,100,2012-11-16 03:00:00